Change the Weather History Date:

Monday, March 31, 2014

  Actual Average Record
Temperature  
Mean Temperature 54 °F -  
Max Temperature 67 °F 58 °F - ()
Min Temperature 42 °F 45 °F - ()
Degree Days  
Heating Degree Days 10    
Growing Degree Days 4 (Base 50)    
Moisture  
Dew Point 41 °F    
Average Humidity 59    
Maximum Humidity 93    
Minimum Humidity 25    
Precipitation  
Precipitation 0.00 in 0.21 in - ()
Sea Level Pressure  
Sea Level Pressure 29.98 in    
Wind  
Wind Speed 3 mph ()    
Max Wind Speed 12 mph    
Max Gust Speed -    
Visibility 16.2 miles    
Events      
T = Trace of Precipitation, MM = Missing Value Source: Averaged Metar Reports

Daily Weather History Graph

Daily Weather History Graph

Search for Another Location

Airport or City:

Trip Planner

Search our weather history database for the weather conditions in past years. The results will help you decide how hot, cold, wet, or windy it might be!

Date:

Astronomy

Mar. 31, 2014 Rise Set
Actual Time 7:06 AM CEST 7:51 PM CEST
Civil Twilight 6:36 AM CEST 8:21 PM CEST
Nautical Twilight 6:00 AM CEST 8:57 PM CEST
Astronomical Twilight 5:23 AM CEST 9:35 PM CEST
Moon 7:17 AM CEST (3/31) 8:56 PM CEST (3/31)
Length of Visible Light 13h 44m
Length of Day
12h 44m
New Moon, 1% of the Moon is Illuminated
Mar 31
New Moon
Apr 7
First Quarter
Apr 15
Full
Apr 22
Last Quarter
Apr 29
New

Hourly Weather History & Observations

Time (CEST) Temp. Windchill Dew Point Humidity Pressure Visibility Wind Dir Wind Speed Gust Speed Precip Events Conditions
12:00 AM 54 °F - 42 °F 54% 30.06 in - West 1.2 mph - -  
12:20 AM 48.2 °F - 42.8 °F 82% 30.04 in - Variable 1.2 mph - N/A   Clear
12:50 AM 46.4 °F - 42.8 °F 87% 30.04 in - NNW 1.2 mph - N/A   Clear
1:00 AM 52 °F - 44 °F 64% 30.06 in - West 1.2 mph - -  
1:20 AM 46.4 °F - 42.8 °F 87% 30.04 in - ESE 1.2 mph - N/A   Clear
1:50 AM 46.4 °F - 41.0 °F 81% 30.04 in - Calm Calm - N/A   Clear
2:00 AM 51 °F - 44 °F 68% 30.06 in 19 mi WSW 1.2 mph - -  
2:20 AM 44.6 °F - 41.0 °F 87% 30.04 in - North 1.2 mph - N/A   Clear
2:50 AM 44.6 °F 43.1 °F 41.0 °F 87% 30.04 in - North 3.5 mph - N/A   Clear
3:00 AM 50 °F - 40 °F 59% 30.05 in - North 1.2 mph - -  
3:20 AM 42.8 °F - 41.0 °F 93% 30.04 in - North 2.3 mph - N/A   Clear
3:50 AM 44.6 °F - 41.0 °F 87% 30.01 in - NNE 2.3 mph - N/A   Clear
4:00 AM 50 °F - 39 °F 57% 30.04 in - North 2.3 mph - -  
4:20 AM 42.8 °F - 39.2 °F 87% 30.01 in - Variable 1.2 mph - N/A   Clear
4:50 AM 42.8 °F - 39.2 °F 87% 30.01 in - North 2.3 mph - N/A   Clear
5:00 AM 48 °F - 40 °F 66% 30.04 in 19 mi North 1.2 mph - -  
5:20 AM 42.8 °F - 39.2 °F 87% 30.01 in - Variable 1.2 mph - N/A   Clear
5:50 AM 42.8 °F - 39.2 °F 87% 30.01 in - North 2.3 mph - N/A   Clear
6:00 AM 47 °F - 40 °F 67% 30.03 in - North 1.2 mph - -  
6:20 AM 42.8 °F - 39.2 °F 87% 30.01 in - North 2.3 mph - N/A   Clear
6:50 AM 42.8 °F - 39.2 °F 87% 30.01 in - Variable 1.2 mph - N/A   Clear
7:00 AM 48 °F - 39 °F 63% 30.03 in - NNE 2.3 mph - -  
7:20 AM 41.0 °F - 37.4 °F 87% 30.01 in - North 2.3 mph - N/A   Clear
7:50 AM 41.0 °F - 37.4 °F 87% 30.01 in - North 2.3 mph - N/A   Clear
8:00 AM 48 °F - 40 °F 64% 30.03 in 12 mi North 1.2 mph - -  
8:20 AM 42.8 °F - 39.2 °F 87% 30.01 in - Variable 1.2 mph - N/A   Clear
8:50 AM 44.6 °F - 41.0 °F 87% 30.01 in - North 2.3 mph - N/A   Clear
9:00 AM 50 °F - 42 °F 65% 30.03 in - Calm Calm - -  
9:20 AM 48.2 °F - 41.0 °F 76% 30.01 in - Variable 2.3 mph - N/A   Clear
9:50 AM 53.6 °F - 41.0 °F 62% 30.01 in - Variable 1.2 mph - N/A   Clear
10:00 AM 52 °F - 43 °F 61% 30.02 in - SE 1.2 mph - -  
10:20 AM 55.4 °F - 41.0 °F 58% 30.01 in - Variable 2.3 mph - N/A   Clear
10:50 AM 57.2 °F - 39.2 °F 51% 30.01 in - Variable 2.3 mph - N/A   Clear
11:00 AM 52 °F - 41 °F 56% 30.02 in - South 1.2 mph - -  
11:20 AM 59.0 °F - 37.4 °F 45% 30.01 in - Variable 2.3 mph - N/A   Clear
11:50 AM 59.0 °F - 41.0 °F 51% 30.01 in - SSW 3.5 mph - N/A   Clear
12:00 PM 55 °F - 46 °F 62% 30.00 in - South 2.3 mph - -  
12:20 PM 60.8 °F - 39.2 °F 45% 29.98 in - South 4.6 mph - N/A   Clear
12:50 PM 64.4 °F - 39.2 °F 40% 29.98 in - South 4.6 mph - N/A   Clear
1:00 PM 61 °F - 39 °F 33% 29.97 in - SE 2.3 mph - -  
1:20 PM 66.2 °F - 41.0 °F 40% 29.98 in - South 5.8 mph - N/A   Clear
1:50 PM 68.0 °F - 37.4 °F 33% 29.95 in - South 5.8 mph - N/A   Clear
2:00 PM 66 °F - 40 °F 27% 29.94 in 19 mi South 3.5 mph - -  
2:20 PM 68.0 °F - 42.8 °F 40% 29.95 in - South 6.9 mph - N/A   Clear
2:50 PM 69.8 °F - 39.2 °F 33% 29.92 in - South 6.9 mph - N/A   Clear
3:00 PM 66 °F - 39 °F 25% 29.92 in - SSW 4.6 mph - -  
3:20 PM 69.8 °F - 39.2 °F 33% 29.92 in - South 5.8 mph - N/A   Clear
3:50 PM 69.8 °F - 41.0 °F 35% 29.92 in - South 8.1 mph - N/A   Clear
4:00 PM 64 °F - 44 °F 37% 29.90 in - South 6.9 mph - -  
4:20 PM 69.8 °F - 39.2 °F 33% 29.89 in - SSW 6.9 mph - N/A   Clear
4:50 PM 69.8 °F - 39.2 °F 33% 29.89 in - South 9.2 mph - N/A   Clear
5:00 PM 64 °F - 42 °F 34% 29.88 in - South 10.4 mph - -  
5:20 PM 69.8 °F - 39.2 °F 33% 29.89 in - SSW 8.1 mph - N/A   Clear
5:50 PM 66.2 °F - 41.0 °F 40% 29.89 in - South 11.5 mph - N/A   Clear
6:00 PM 62 °F - 44 °F 41% 29.88 in - South 11.5 mph - -  
6:20 PM 66.2 °F - 39.2 °F 37% 29.89 in - South 9.2 mph - N/A   Clear
6:50 PM 64.4 °F - 41.0 °F 42% 29.89 in - South 9.2 mph - N/A   Clear
7:00 PM 63 °F - 42 °F 35% 29.88 in - South 6.9 mph - -  
7:20 PM 64.4 °F - 41.0 °F 42% 29.89 in - South 6.9 mph - N/A   Clear
7:50 PM 62.6 °F - 42.8 °F 48% 29.89 in - South 5.8 mph - N/A   Clear
8:00 PM 64 °F - 38 °F 27% 29.90 in 12 mi SSW 3.5 mph - -   Partly Cloudy
8:20 PM 59.0 °F - 42.8 °F 55% 29.92 in - South 3.5 mph - N/A   Clear
8:50 PM 55.4 °F - 42.8 °F 63% 29.92 in - Variable 2.3 mph - N/A   Clear
9:00 PM 61 °F - 41 °F 36% 29.92 in - North 3.5 mph - -  
9:20 PM 55.4 °F - 42.8 °F 63% 29.92 in - North 3.5 mph - N/A   Clear
9:50 PM 53.6 °F - 42.8 °F 67% 29.95 in - North 3.5 mph - N/A   Clear
10:00 PM 59 °F - 40 °F 39% 29.94 in - NNW 4.6 mph - -  
10:20 PM 53.6 °F - 42.8 °F 67% 29.95 in - Variable 2.3 mph - N/A   Clear
10:50 PM 53.6 °F - 42.8 °F 67% 29.95 in - Variable 2.3 mph - N/A   Clear
11:00 PM 57 °F - 41 °F 44% 29.96 in - ENE 1.2 mph - -  
11:20 PM 50.0 °F - 42.8 °F 76% 29.95 in - North 5.8 mph - N/A   Clear
11:50 PM 50.0 °F - 42.8 °F 76% 29.95 in - North 3.5 mph - N/A   Clear